User: anonymous
Location: Saint Peter Port
(49.4500°N, 2.5330°W)
Time: 13:00:01
(UTC+01:00)
Language:

Cosmos 2242 Rocket - Orbit

View from above orbital plane
View from above orbital plane
View from above satellite
View from above satellite

Ground track
Ground track

The orbit data is extracted from the following two-line orbital elements,

1 22627U 93024B   14237.85036615  .00000212  00000-0  26288-4 0  4077
2 22627 082.5253 332.9900 0025153 087.1484 050.4559 14.77648374150555
Epoch (UTC): 25 August 2014 20:24:31
Eccentricity: 0.0025153
inclination: 82.5253°
perigee height: 619 km
apogee height: 654 km
right ascension of ascending node: 332.9900°
argument of perigee: 87.1484°
revolutions per day: 14.77648374
mean anomaly at epoch: 50.4559°
orbit number at epoch: 15055

The dashed part of the orbit path shows where the satellite is in the earth's shadow,  

DLR